Regional Weather Roundup
Issued by NWS

Home | Current Version | Previous Version | Graphics & Text | Print | Product List | Glossary On
Versions: 1 2 3 4 5 6 7 8 9 10 11 12 13 14 15 16 17 18 19 20 21 22 23 24 25 26 27 28 29 30 31 32 33 34 35 36 37 38 39 40 41 42 43 44 45 46 47 48 49 50
000
ASUS45 KTFX 301510
RWRMT
MONTANA REGIONAL WEATHER ROUNDUP
NATIONAL WEATHER SERVICE GREAT FALLS MT
900 AM MDT TUE JUN 30 2015

NOTE: "FAIR" INDICATES FEW OR NO CLOUDS BELOW 12000 FEET WITH NO
SIGNIFICANT WEATHER AND/OR OBSTRUCTIONS TO VISIBILITY.

MTZ001>007-043-301600-
WEST OF THE DIVIDE

CITY           SKY/WX    TMP DP  RH WIND       PRES   REMARKS
KALISPELL      SUNNY     72  57  59 CALM      30.04R
MISSOULA       PTSUNNY   70  62  76 S6        30.09F
BUTTE          SUNNY     66  56  70 CALM      30.23S
MULLAN PASS    SUNNY     65  53  65 N3        30.23R
EUREKA           N/A     61  61 100 N5        30.09R
HAMILTON         N/A     72  61  68 S9        30.11S
PLAINS           N/A     73  60  63 CALM      30.04S
RONAN            N/A     78  62  57 CALM      30.09S
$$

MTZ008-052>055-301600-
SOUTHWEST MONTANA

CITY           SKY/WX    TMP DP  RH WIND       PRES   REMARKS
BOZEMAN        MOSUNNY   69  57  65 CALM      30.15S
DILLON         MOSUNNY   70  58  65 S7        30.18F
W YELLOWSTONE  MOSUNNY   64  52  63 CALM      30.29S
THREE FORKS      N/A     71  45  39 CALM      30.12S
TWIN BRIDGES     N/A     70  56  61 SE8       30.14F
$$

MTZ009-010-012-014-046-048-049-054-301600-
EAST SLOPES AND CENTRAL MONTANA

CITY           SKY/WX    TMP DP  RH WIND       PRES   REMARKS
CUT BANK       SUNNY     79  45  29 W20       29.99S
GREAT FALLS    SUNNY     78  59  51 SW13      30.00F
MALMSTROM AFB  SUNNY     78  58  50 SW17      30.00F
HELENA         SUNNY     73  61  65 E5        30.09S
CONRAD           N/A     79  62  55 SW9       30.02S
$$

MTZ011-013-016-021-045-047-050-051-301600-
NORTH CENTRAL MONTANA

CITY           SKY/WX    TMP DP  RH WIND       PRES   REMARKS
HAVRE          SUNNY     78  55  44 SW13      29.91S HAZE
LEWISTOWN      MOSUNNY   79  55  43 W7        30.02S
CHINOOK          N/A     77  57  50 W8        29.89S
FORT BENTON      N/A     81  61  50 SW14      29.94F
$$

MTZ017>020-022>027-061-062-301600-
NORTHEAST MONTANA

CITY           SKY/WX    TMP DP  RH WIND       PRES   REMARKS
JORDAN           N/A     72  53  51 CALM      29.91F
SIDNEY         MOSUNNY   75  63  64 N9        29.92S
WOLF POINT     HAZE      75  58  55 E14       29.90F VSB 3/4
MALTA            N/A     76  50  40 NE1       29.86F
PLENTYWOOD       N/A     66  59  77 NE12G18   29.95S
POPLAR           N/A     73  63  68 E10G17    29.91F
SCOBEY           N/A     70  54  56 E5        29.94S
$$

MTZ028>42-056>058-301600-
SOUTHCENTRAL AND SOUTHEAST MONTANA

CITY           SKY/WX    TMP DP  RH WIND       PRES   REMARKS
BAKER          CLOUDY    71  62  73 E10       29.93S
BILLINGS       CLOUDY    71  59  65 SW12      30.00F
LIVINGSTON     MOSUNNY   73  59  61 NW12      30.12R
MILES CITY     CLOUDY    76  59  55 NE8       29.91R HAZE
BIG TIMBER       N/A     72  57  60 SW22G28   30.07S
EKALAKA          N/A     74  57  55 CALM      29.93S
FORSYTH          N/A     79  57  47 W8        29.92S
LAUREL           N/A     70  56  61 S6        30.01S
ROUNDUP          N/A     75  57  53 SW6       29.90F
$$

REGIONAL REPORTS...DAKOTAS

CITY           SKY/WX    TMP DP  RH WIND       PRES   REMARKS
WILLISTON      PTSUNNY   75  60  59 NE9       29.94S HAZE
MINOT          CLOUDY    65  62  90 CALM      29.94R FOG
DICKINSON      CLOUDY    70  63  78 E8        29.94S
BEACH          FAIR      72  64  78 SE12      29.94F
CROSBY         FOG       63  63 100 CALM      29.97S VSB 1
BISMARCK       LGT RAIN  67  63  87 E7        29.97R
GRAND FORKS    CLOUDY    65  60  84 CALM      29.96F
FARGO          PTSUNNY   68  62  81 CALM      29.96F
BUFFALO SD       N/A     70  63  78 E8        29.87S
RAPID CITY     PTSUNNY   76  61  59 CALM      29.95F
$$

REGIONAL REPORTS...WYOMING/IDAHO/WASHINGTON

CITY           SKY/WX    TMP DP  RH WIND       PRES   REMARKS
GILLETTE       CLOUDY    75  57  53 NW3       30.02S
SHERIDAN       CLOUDY    72  57  59 NW10      30.05R
BUFFALO WY     CLOUDY    75  51  43 NW7       30.08R
CODY           CLOUDY    73  55  53 N3        30.14R
YELLOWSTONE LA   N/A     62  51  67 E5        30.39R
IDAHO FALLS    MOSUNNY   70  58  65 N3        30.15R
SALMON         MOSUNNY   68  61  77 S5        30.15F
BOISE          SUNNY     79  57  46 W3        30.01F
SPOKANE        SUNNY     75  56  51 NE6       30.05R
$$

REGIONAL REPORTS...ALBERTA

CITY           SKY/WX    TMP DP  RH WIND       PRES   REMARKS
EDMONTON       CLOUDY    59  54  82 E2        30.00R
CALGARY        PTSUNNY   64  59  82 N13G21    30.00R
LETHBRIDGE     PTSUNNY   72  57  60 W21       29.96R
MEDICINE HAT   MOSUNNY   70  63  78 SW12      29.88F SMOKE
WATERTON GATE    N/A     73  48  40 W10         N/A
MILK RIVER       N/A     77  46  33 W23G36      N/A
ONEFOUR          N/A     72  41  33 W5          N/A
$$

REGIONAL REPORTS...SASKATCHEWAN

CITY           SKY/WX    TMP DP  RH WIND       PRES   REMARKS
SWIFT CURRENT  MOSUNNY   63  52  67 SE15G24   29.94F HAZE
REGINA         LGT RAIN  61  61 100 W3        29.97R VSB 5/8
SASKATOON        N/A     66  57  72 VRB2      29.95F SMOKE
CYPRESS HILLS    N/A     64  45  48 S7          N/A
VAL MARIE        N/A     72  50  46 E14         N/A
ROCKGLEN         N/A     64  55  72 NE3         N/A
ASSINIBOIA       N/A    N/A N/A N/A CALM        N/A
$$


USA.gov is the U.S. government's official web portal to all federal, state and local government web resources and services.